Weather History for Gainesville, TX

Change the Weather History Date:

Monday, September 23, 2013

  Actual Average (KDTO) Record (KDTO)
Temperature  
Mean Temperature 66 °F -  
Max Temperature 82 °F 84 °F 100 °F (2005)
Min Temperature 53 °F 59 °F 44 °F (1999)
Cooling Degree Days 2    
Growing Degree Days 16 (Base 50)    
Moisture  
Dew Point 52 °F    
Average Humidity 61    
Maximum Humidity 89    
Minimum Humidity 32    
Precipitation  
Precipitation 0.00 in - - ()
Sea Level Pressure  
Sea Level Pressure 29.85 in    
Wind  
Wind Speed 5 mph (SE)    
Max Wind Speed 15 mph    
Max Gust Speed 17 mph    
Visibility 10 miles    
Events      
Averages and records for this station are not official NWS values.
T = Trace of Precipitation, MM = Missing Value Source: NWS Daily Summary

Daily Weather History Graph

Daily Weather History Graph

Search for Another Location

Airport:

Trip Planner

Search our weather history database for the weather conditions in past years. The results will help you decide how hot, cold, wet, or windy it might be!

Date:

Astronomy

Sep. 23, 2013 Rise Set
Actual Time 7:17 AM CDT 7:23 PM CDT
Civil Twilight 6:52 AM CDT 7:48 PM CDT
Nautical Twilight 6:23 AM CDT 8:17 PM CDT
Astronomical Twilight 5:54 AM CDT 8:46 PM CDT
Moon 10:10 PM CDT (9/23) 11:24 AM CDT (9/23)
Length of Visible Light 12h 55m
Length of Day
12h 05m
Waning Gibbous, 81% of the Moon is Illuminated
Sep 23
Waning Gibbous
Sep 26
Last Quarter
Oct 4
New
Oct 11
First Quarter
Oct 18
Full

Hourly Weather History & Observations

Time (CDT) Temp. Dew Point Humidity Pressure Visibility Wind Dir Wind Speed Gust Speed Precip Events Conditions
12:15 AM 60.8 °F 50.5 °F 69% 29.88 in 10.0 mi ESE 4.6 mph - N/A   Clear
12:35 AM 60.1 °F 50.7 °F 71% 29.88 in 10.0 mi ESE 4.6 mph - N/A   Clear
12:55 AM 59.4 °F 50.9 °F 74% 29.88 in 10.0 mi SE 3.5 mph - N/A   Clear
1:15 AM 59.7 °F 50.5 °F 72% 29.88 in 10.0 mi SE 3.5 mph - N/A   Clear
1:35 AM 60.8 °F 51.1 °F 70% 29.88 in 10.0 mi Calm Calm - N/A   Clear
1:55 AM 59.5 °F 50.2 °F 71% 29.88 in 10.0 mi Calm Calm - N/A   Clear
2:15 AM 59.5 °F 50.4 °F 72% 29.88 in 10.0 mi Calm Calm - N/A   Clear
2:35 AM 58.8 °F 50.7 °F 74% 29.88 in 10.0 mi Calm Calm - N/A   Clear
2:55 AM 58.8 °F 50.5 °F 74% 29.87 in 10.0 mi ESE 3.5 mph - N/A   Clear
3:15 AM 58.3 °F 50.9 °F 76% 29.87 in 10.0 mi SE 3.5 mph - N/A   Clear
3:35 AM 58.3 °F 51.3 °F 77% 29.87 in 10.0 mi Calm Calm - N/A   Clear
3:55 AM 57.2 °F 50.9 °F 79% 29.87 in 10.0 mi Calm Calm - N/A   Clear
4:15 AM 57.2 °F 50.5 °F 78% 29.86 in 10.0 mi SE 4.6 mph - N/A   Clear
4:35 AM 55.8 °F 51.3 °F 85% 29.86 in 10.0 mi ESE 4.6 mph - N/A   Clear
4:55 AM 55.6 °F 51.6 °F 87% 29.86 in 10.0 mi SE 3.5 mph - N/A   Clear
5:15 AM 54.9 °F 51.3 °F 88% 29.86 in 10.0 mi ESE 4.6 mph - N/A   Clear
5:35 AM 54.3 °F 51.1 °F 89% 29.86 in 10.0 mi East 4.6 mph - N/A   Clear
5:55 AM 53.8 °F 50.4 °F 88% 29.86 in 10.0 mi Calm Calm - N/A   Clear
6:15 AM 55.8 °F 52.3 °F 88% 29.87 in 10.0 mi Calm Calm - N/A   Clear
6:35 AM 55.6 °F 52.2 °F 88% 29.87 in 10.0 mi Calm Calm - N/A   Clear
6:55 AM 55.8 °F 52.0 °F 87% 29.88 in 10.0 mi ESE 4.6 mph - N/A   Clear
7:15 AM 55.4 °F 52.0 °F 88% 29.89 in 10.0 mi Calm Calm - N/A   Clear
7:35 AM 55.8 °F 52.0 °F 87% 29.88 in 10.0 mi Calm Calm - N/A   Clear
7:55 AM 55.6 °F 52.5 °F 89% 29.88 in 10.0 mi East 4.6 mph - N/A   Clear
8:15 AM 56.8 °F 53.1 °F 87% 29.88 in 10.0 mi East 3.5 mph - N/A   Clear
8:35 AM 58.3 °F 54.5 °F 87% 29.88 in 10.0 mi ESE 6.9 mph - N/A   Clear
8:55 AM 60.1 °F 55.0 °F 83% 29.88 in 10.0 mi ESE 6.9 mph - N/A   Clear
9:15 AM 63.3 °F 57.2 °F 80% 29.89 in 10.0 mi SE 5.8 mph - N/A   Clear
9:35 AM 65.8 °F 57.4 °F 74% 29.90 in 10.0 mi SE 9.2 mph - N/A   Clear
9:55 AM 66.7 °F 56.1 °F 69% 29.90 in 10.0 mi SSE 10.4 mph - N/A   Clear
10:15 AM 70.9 °F 56.1 °F 59% 29.90 in 10.0 mi SSE 11.5 mph - N/A   Clear
10:35 AM 70.9 °F 54.1 °F 55% 29.90 in 10.0 mi SE 13.8 mph - N/A   Clear
10:55 AM 71.4 °F 52.5 °F 51% 29.90 in 10.0 mi SSE 15.0 mph - N/A   Clear
11:15 AM 72.7 °F 53.4 °F 51% 29.89 in 10.0 mi SSE 13.8 mph - N/A   Clear
11:35 AM 73.4 °F 53.6 °F 50% 29.89 in 10.0 mi SSE 10.4 mph - N/A   Clear
11:55 AM 75.0 °F 53.6 °F 47% 29.89 in 10.0 mi SSE 10.4 mph 17.3 mph N/A   Clear
12:15 PM 75.7 °F 54.0 °F 47% 29.89 in 10.0 mi SE 11.5 mph 17.3 mph N/A   Clear
12:35 PM 75.7 °F 52.5 °F 44% 29.88 in 10.0 mi SSE 10.4 mph - N/A   Clear
1:15 PM 77.0 °F 52.3 °F 42% 29.86 in 10.0 mi SSE 9.2 mph 17.3 mph N/A   Clear
1:35 PM 77.0 °F 51.8 °F 41% 29.85 in 10.0 mi SSE 8.1 mph 16.1 mph N/A   Clear
1:55 PM 78.3 °F 52.5 °F 41% 29.84 in 10.0 mi South 9.2 mph - N/A   Clear
2:15 PM 78.3 °F 52.3 °F 40% 29.83 in 10.0 mi SE 9.2 mph - N/A   Clear
2:35 PM 78.3 °F 51.8 °F 40% 29.82 in 10.0 mi SE 6.9 mph - N/A   Clear
2:55 PM 78.8 °F 51.6 °F 39% 29.81 in 10.0 mi SE 9.2 mph 16.1 mph N/A   Clear
3:15 PM 79.7 °F 51.4 °F 37% 29.80 in 10.0 mi SE 10.4 mph - N/A   Clear
3:35 PM 80.1 °F 51.3 °F 37% 29.80 in 10.0 mi SE 10.4 mph - N/A   Clear
3:55 PM 79.9 °F 49.3 °F 34% 29.80 in 10.0 mi SE 8.1 mph - N/A   Clear
4:15 PM 80.2 °F 49.1 °F 34% 29.79 in 10.0 mi SSE 5.8 mph - N/A   Clear
4:35 PM 80.1 °F 48.9 °F 34% 29.78 in 10.0 mi SE 9.2 mph - N/A   Clear
4:55 PM 80.8 °F 48.4 °F 32% 29.78 in 10.0 mi SE 10.4 mph - N/A   Clear
5:15 PM 80.4 °F 49.3 °F 34% 29.78 in 10.0 mi SE 10.4 mph 16.1 mph N/A   Clear
5:35 PM 79.7 °F 48.7 °F 34% 29.78 in 10.0 mi SSE 11.5 mph - N/A   Clear
5:55 PM 79.2 °F 47.3 °F 33% 29.79 in 10.0 mi SE 9.2 mph - N/A   Clear
6:15 PM 78.4 °F 46.2 °F 32% 29.79 in 10.0 mi SE 9.2 mph - N/A   Clear
6:35 PM 78.3 °F 48.4 °F 35% 29.80 in 10.0 mi SE 10.4 mph - N/A   Clear
6:55 PM 77.0 °F 49.3 °F 38% 29.80 in 10.0 mi SE 6.9 mph - N/A   Clear
7:15 PM 75.7 °F 50.5 °F 41% 29.81 in 10.0 mi SE 5.8 mph - N/A   Clear
7:35 PM 73.4 °F 52.5 °F 48% 29.81 in 10.0 mi SE 5.8 mph - N/A   Clear
7:55 PM 73.4 °F 50.9 °F 45% 29.82 in 10.0 mi ESE 3.5 mph - N/A   Clear
8:15 PM 73.4 °F 52.0 °F 47% 29.82 in 10.0 mi Calm Calm - N/A   Clear
8:35 PM 72.7 °F 52.3 °F 49% 29.84 in 10.0 mi ENE 3.5 mph - N/A   Clear
8:55 PM 70.9 °F 53.4 °F 54% 29.84 in 10.0 mi ENE 4.6 mph - N/A   Clear
9:15 PM 70.9 °F 55.4 °F 58% 29.85 in 10.0 mi East 4.6 mph - N/A   Clear
9:35 PM 70.9 °F 56.3 °F 60% 29.85 in 10.0 mi ENE 5.8 mph - N/A   Clear
9:55 PM 68.4 °F 55.2 °F 63% 29.86 in 10.0 mi ENE 5.8 mph - N/A   Clear
10:15 PM 68.4 °F 54.9 °F 62% 29.87 in 10.0 mi ENE 5.8 mph - N/A   Clear
10:35 PM 68.4 °F 55.2 °F 63% 29.87 in 10.0 mi East 4.6 mph - N/A   Clear
10:55 PM 67.1 °F 54.3 °F 63% 29.87 in 10.0 mi East 5.8 mph - N/A   Clear
11:15 PM 66.0 °F 53.8 °F 65% 29.88 in 10.0 mi East 4.6 mph - N/A   Clear
11:35 PM 65.8 °F 54.1 °F 66% 29.88 in 10.0 mi Calm Calm - N/A   Clear
11:55 PM 66.6 °F 54.7 °F 66% 29.88 in 10.0 mi East 3.5 mph - N/A   Clear